Location: Saint-Usage
(47.1052°N, 5.2587°E)
Time: 05:03:51
(UTC+01:00)

NO-84 - Visible Passes

Search period start: 05 December 2021 00:00
Search period end: 15 December 2021 00:00
Orbit: 254 x 295 km, 55.0° (Epoch: 30 November)

Date Brightness Start Highest point End Pass type
(mag) Time Alt. Az. Time Alt. Az. Time Alt. Az.
05 Dec ? 17:37:33 10° SSE 17:38:16 11° SE 17:38:58 10° ESE visible
05 Dec ? 19:08:44 10° WSW 19:09:20 16° WSW 19:09:20 16° WSW visible
06 Dec ? 17:32:58 10° S 17:34:40 17° SE 17:36:22 10° E visible
06 Dec ? 19:05:23 10° W 19:06:09 17° W 19:06:09 17° W visible
07 Dec ? 17:28:24 10° SSW 17:30:29 28° SE 17:32:34 10° ENE visible
07 Dec ? 19:01:29 10° W 19:02:18 17° WNW 19:02:18 17° WNW visible
08 Dec ? 17:23:29 10° SW 17:25:45 48° SE 17:28:00 10° ENE visible
08 Dec ? 18:57:02 10° WNW 18:57:49 15° WNW 18:57:49 15° WNW visible
09 Dec ? 18:52:02 10° WNW 18:52:42 14° NW 18:52:42 14° NW visible
10 Dec ? 18:46:24 10° NW 18:46:58 13° NW 18:46:58 13° NW visible
11 Dec ? 18:40:10 10° NW 18:40:37 12° NNW 18:40:37 12° NNW visible
12 Dec ? 18:33:18 10° NNW 18:33:40 11° NNW 18:33:40 11° NNW visible
13 Dec ? 18:25:44 10° NNW 18:26:08 11° NNW 18:26:08 11° NNW visible
14 Dec ? 18:17:29 10° NNW 18:18:01 11° N 18:18:01 11° N visible
